Location: ??????
(41.3164°N, 22.6615°E)
Time: 23:45:36
(UTC+00:00)

CSL-04 Rocket - Pass Details

Date: 16 October 2021
Orbit: 806 x 860 km, 98.9° (Epoch: 26 November)

Event Time Altitude Azimuth Distance (km) Brightness Sun altitude
Exits shadow 17:48:34 45° 144° (SE) 1,150 4.0 -23.6°
Maximum altitude 17:50:16 73° 73° (ENE) 896 3.6 -23.9°
Drops below altitude 10° 17:55:49 10° 350° (N) 2,503 6.4 -24.9°
Sets 17:58:13 0° 349° (N) 3,446 7.2 -25.4°
